TimeEDT,TemperatureF,Dew PointF,Humidity,Sea Level PressureIn,VisibilityMPH,Wind Direction,Wind SpeedMPH,Gust SpeedMPH,PrecipitationIn,Events,Conditions,WindDirDegrees,DateUTC
12:54 AM,81.0,72.0,74,30.08,10.0,WSW,5.8,-,N/A,,Clear,240,2013-07-06 04:54:00
1:54 AM,81.0,71.1,72,30.07,10.0,SW,6.9,-,N/A,,Clear,230,2013-07-06 05:54:00
2:54 AM,79.0,72.0,79,30.07,10.0,SSW,5.8,-,N/A,,Clear,200,2013-07-06 06:54:00
3:54 AM,79.0,72.0,79,30.07,10.0,SSW,5.8,-,N/A,,Clear,210,2013-07-06 07:54:00
4:54 AM,77.0,71.1,82,30.07,10.0,SW,4.6,-,N/A,,Clear,220,2013-07-06 08:54:00
5:54 AM,78.1,71.1,79,30.07,10.0,SW,6.9,-,N/A,,Clear,220,2013-07-06 09:54:00
6:54 AM,80.1,71.1,74,30.08,10.0,WSW,6.9,-,N/A,,Clear,240,2013-07-06 10:54:00
7:54 AM,82.0,71.1,69,30.08,10.0,WSW,6.9,-,N/A,,Clear,250,2013-07-06 11:54:00
8:54 AM,84.0,71.1,65,30.07,10.0,WSW,6.9,16.1,N/A,,Clear,250,2013-07-06 12:54:00
9:54 AM,86.0,70.0,59,30.06,10.0,West,9.2,-,N/A,,Clear,270,2013-07-06 13:54:00
10:54 AM,88.0,70.0,55,30.05,10.0,West,12.7,19.6,N/A,,Scattered Clouds,270,2013-07-06 14:54:00
11:54 AM,88.0,69.1,53,30.05,10.0,West,11.5,19.6,N/A,,Partly Cloudy,280,2013-07-06 15:54:00
12:54 PM,88.0,69.1,53,30.04,10.0,West,10.4,18.4,N/A,,Partly Cloudy,280,2013-07-06 16:54:00
1:54 PM,89.1,69.1,52,30.04,10.0,WNW,10.4,19.6,N/A,,Mostly Cloudy,300,2013-07-06 17:54:00
2:54 PM,89.1,68.0,50,30.03,10.0,West,8.1,19.6,N/A,,Scattered Clouds,270,2013-07-06 18:54:00
3:54 PM,90.0,66.0,45,30.01,10.0,West,12.7,20.7,N/A,,Clear,260,2013-07-06 19:54:00
4:54 PM,89.1,66.9,48,30.00,10.0,West,10.4,-,N/A,,Clear,280,2013-07-06 20:54:00
5:54 PM,89.1,66.0,46,29.99,10.0,West,11.5,21.9,N/A,,Clear,270,2013-07-06 21:54:00
6:54 PM,87.1,64.9,48,29.99,10.0,West,11.5,-,N/A,,Clear,260,2013-07-06 22:54:00
7:54 PM,84.9,62.1,46,29.99,10.0,West,5.8,-,N/A,,Clear,260,2013-07-06 23:54:00
8:54 PM,82.9,60.1,46,30.01,10.0,West,6.9,-,N/A,,Clear,260,2013-07-07 00:54:00
9:54 PM,81.0,60.1,49,30.02,10.0,West,6.9,-,N/A,,Clear,260,2013-07-07 01:54:00
10:54 PM,79.0,60.1,52,30.02,10.0,West,4.6,-,N/A,,Clear,260,2013-07-07 02:54:00
11:54 PM,77.0,61.0,58,30.03,10.0,WSW,5.8,-,N/A,,Clear,240,2013-07-07 03:54:00